Погода на Островах Корн

Никарагуа     12°10′00″N   83°01′59″W
темп.,
°C
ветер,
м/с
пор.,
м/с
влажн.,
%
обл.,
%
осадки,
мм/ч
давл.,
гПа
погр.,
м
13 апреля, вт
вт1300:00+28вюв688390 0.4 1010540
03:00+27в6681100 0.1 1009605
06:00+27всв7783100 0.1 1010682
09:00+27всв788187 0.2 1013660
12:00+28св7881100 0.6 1011622
15:00+28св8980100 0.3 1009705
18:00+27св9108440 0.9 1010704
21:00+27св810819 0.0 1012719
14 апреля, ср
ср1400:00+27св788062 0.0 1012735
03:00+27св7881100 0.1 1011763
06:00+27св8981100 0.5 1012763
09:00+27св8878100 0.1 1014792
12:00+27св887849 0.1 1013946
15:00+28св8975100 0.0 10101059
18:00+27св8877100 0.0 1011876
21:00+27всв7878100 0.0 1012938
15 апреля, чт
чт1500:00+27св7779100 0.1 1011781
03:00+27св7778100 0.0 1010813
06:00+27св887796 0.0 1011810
09:00+27св78777 0.0 1013928
12:00+27св78795 0.1 1011826
15:00+27св787924 0.2 1009809
18:00+27св678247 0.5 1010718
21:00+27всв678119 0.4 1011713
16 апреля, пт
пт1600:00+27всв6683100 1.9 1010547
03:00+27всв568381 1.1 1009584
06:00+27всв6783100 2.8 1011679
09:00+27всв678244 1.0 1012660
12:00+27всв678226 2.4 1010667
15:00+27всв678237 0.3 1008698
18:00+27всв6782100 1.0 1009680
21:00+27в6782100 0.4 1011682
17 апреля, сб
сб1700:00+27в5683100 0.8 1010584
03:00+27в458339 1.8 1009502
06:00+27в448290 3.4 1010587
09:00+27всв4484100 1.9 1012331
12:00+27всв447991 2.6 1011641
15:00+28всв447820 0.0 1009684
18:00+27всв558022 0.0 1010681
21:00+27в55825 0.0 1011564